Time,TemperatureF,DewpointF,PressureIn,WindDirection,WindDirectionDegrees,WindSpeedMPH,WindSpeedGustMPH,Humidity,HourlyPrecipIn,Conditions,Clouds,dailyrainin,SolarRadiationWatts/m^2,SoftwareType,DateUTC
2013-08-23 00:12:00,63.0,59.0,-100.00,SSE,159,4.0,10.0,88,0.00,,,0.00,0.000000,,2013-08-23 06:12:00,
2013-08-23 00:22:00,63.0,59.0,-100.00,SSE,159,4.0,10.0,88,0.00,,,0.00,0.000000,,2013-08-23 06:22:00,
2013-08-23 00:32:00,63.0,59.0,-100.00,SSE,159,4.0,10.0,88,0.00,,,0.00,0.000000,,2013-08-23 06:32:00,
2013-08-23 01:12:00,61.0,57.0,-100.00,SE,130,3.0,9.0,88,0.00,,,0.00,0.000000,,2013-08-23 07:12:00,
2013-08-23 01:22:00,61.0,57.0,-100.00,SE,130,3.0,9.0,88,0.00,,,0.00,0.000000,,2013-08-23 07:22:00,
2013-08-23 01:32:00,61.0,57.0,-100.00,SE,130,3.0,9.0,88,0.00,,,0.00,0.000000,,2013-08-23 07:32:00,
2013-08-23 02:13:00,61.0,58.0,-100.00,SSE,164,3.0,9.0,90,0.00,,,0.00,0.000000,,2013-08-23 08:13:00,
2013-08-23 02:22:00,61.0,58.0,-100.00,SSE,164,3.0,9.0,90,0.00,,,0.00,0.000000,,2013-08-23 08:22:00,
2013-08-23 02:32:00,61.0,58.0,-100.00,SSE,164,3.0,9.0,90,0.00,,,0.00,0.000000,,2013-08-23 08:32:00,
2013-08-23 03:12:00,62.0,58.0,-100.00,SE,125,4.0,20.0,88,0.00,,,0.00,3.000000,,2013-08-23 09:12:00,
2013-08-23 03:21:00,62.0,58.0,-100.00,SE,125,4.0,20.0,88,0.00,,,0.00,3.000000,,2013-08-23 09:21:00,
2013-08-23 03:33:00,62.0,58.0,-100.00,SE,125,4.0,20.0,88,0.00,,,0.00,3.000000,,2013-08-23 09:33:00,
2013-08-23 04:13:00,63.0,60.0,-100.00,East,97,4.0,11.0,91,0.00,,,0.00,7.000000,,2013-08-23 10:13:00,
2013-08-23 04:23:00,63.0,60.0,-100.00,East,97,4.0,11.0,91,0.00,,,0.00,7.000000,,2013-08-23 10:23:00,
2013-08-23 04:33:00,63.0,60.0,-100.00,East,97,4.0,11.0,91,0.00,,,0.00,7.000000,,2013-08-23 10:33:00,
2013-08-23 05:11:00,63.0,61.0,-100.00,South,191,3.0,14.0,94,0.00,,,0.00,9.000000,,2013-08-23 11:11:00,
2013-08-23 05:22:00,63.0,61.0,-100.00,South,191,3.0,14.0,94,0.00,,,0.00,9.000000,,2013-08-23 11:22:00,
2013-08-23 05:33:00,63.0,61.0,-100.00,South,191,3.0,14.0,94,0.00,,,0.00,9.000000,,2013-08-23 11:33:00,
2013-08-23 06:11:00,61.0,59.0,-100.00,SSW,205,3.0,10.0,94,0.00,,,0.00,1.000000,,2013-08-23 12:11:00,
2013-08-23 06:22:00,61.0,59.0,-100.00,SSW,205,3.0,10.0,94,0.00,,,0.00,1.000000,,2013-08-23 12:22:00,
2013-08-23 06:31:00,61.0,59.0,-100.00,SSW,205,3.0,10.0,94,0.00,,,0.00,1.000000,,2013-08-23 12:31:00,
2013-08-23 07:12:00,63.0,61.0,-100.00,West,277,3.0,10.0,94,0.00,,,0.00,2.000000,,2013-08-23 13:12:00,
2013-08-23 07:22:00,63.0,61.0,-100.00,West,277,3.0,10.0,94,0.00,,,0.00,2.000000,,2013-08-23 13:22:00,
2013-08-23 07:32:00,63.0,61.0,-100.00,West,277,3.0,10.0,94,0.00,,,0.00,2.000000,,2013-08-23 13:32:00,
2013-08-23 08:12:00,64.0,60.0,-100.00,SSW,200,2.0,9.0,86,0.00,,,0.00,85.000000,,2013-08-23 14:12:00,
2013-08-23 08:21:00,64.0,60.0,-100.00,SSW,200,2.0,9.0,86,0.00,,,0.00,85.000000,,2013-08-23 14:21:00,
2013-08-23 08:32:00,64.0,60.0,-100.00,SSW,200,2.0,9.0,86,0.00,,,0.00,85.000000,,2013-08-23 14:32:00,
2013-08-23 09:11:00,65.0,60.0,-100.00,NE,36,1.0,7.0,84,0.00,,,0.00,293.000000,,2013-08-23 15:11:00,
2013-08-23 09:22:00,65.0,60.0,-100.00,NE,36,1.0,7.0,84,0.00,,,0.00,293.000000,,2013-08-23 15:22:00,
2013-08-23 09:33:00,65.0,60.0,-100.00,NE,36,1.0,7.0,84,0.00,,,0.00,293.000000,,2013-08-23 15:33:00,
2013-08-23 10:13:00,64.0,61.0,-100.00,SSE,149,4.0,8.0,91,0.00,,,0.00,55.000000,,2013-08-23 16:13:00,
2013-08-23 10:24:00,64.0,61.0,-100.00,SSE,149,4.0,8.0,91,0.00,,,0.00,55.000000,,2013-08-23 16:24:00,
2013-08-23 10:34:00,64.0,61.0,-100.00,SSE,149,4.0,8.0,91,0.00,,,0.00,55.000000,,2013-08-23 16:34:00,
2013-08-23 11:13:00,69.0,63.0,-100.00,SE,143,5.0,10.0,82,-99.99,,,0.00,92.000000,,2013-08-23 17:13:00,
2013-08-23 11:24:00,69.0,63.0,-100.00,SE,143,5.0,10.0,82,-99.99,,,0.00,92.000000,,2013-08-23 17:24:00,
2013-08-23 11:34:00,69.0,63.0,-100.00,SE,143,5.0,10.0,82,-99.99,,,0.00,92.000000,,2013-08-23 17:34:00,
2013-08-23 12:12:00,75.0,64.0,-100.00,SSE,156,7.0,11.0,68,0.00,,,0.00,132.000000,,2013-08-23 18:12:00,
2013-08-23 12:22:00,75.0,64.0,-100.00,SSE,156,7.0,11.0,68,0.00,,,0.00,132.000000,,2013-08-23 18:22:00,
2013-08-23 12:32:00,75.0,64.0,-100.00,SSE,156,7.0,11.0,68,0.00,,,0.00,132.000000,,2013-08-23 18:32:00,
2013-08-23 13:12:00,77.0,64.0,-100.00,SSE,152,8.0,17.0,64,0.00,,,0.00,14.000000,,2013-08-23 19:12:00,
2013-08-23 13:22:00,77.0,64.0,-100.00,SSE,152,8.0,17.0,64,0.00,,,0.00,14.000000,,2013-08-23 19:22:00,
2013-08-23 13:32:00,77.0,64.0,-100.00,SSE,152,8.0,17.0,64,0.00,,,0.00,14.000000,,2013-08-23 19:32:00,
2013-08-23 14:12:00,78.0,61.0,-100.00,SSE,148,8.0,22.0,55,0.00,,,0.00,0.000000,,2013-08-23 20:12:00,
2013-08-23 14:22:00,78.0,61.0,-100.00,SSE,148,8.0,22.0,55,0.00,,,0.00,0.000000,,2013-08-23 20:22:00,
2013-08-23 14:32:00,78.0,61.0,-100.00,SSE,148,8.0,22.0,55,0.00,,,0.00,0.000000,,2013-08-23 20:32:00,
2013-08-23 15:11:00,80.0,61.0,-100.00,SSE,149,9.0,18.0,53,0.00,,,0.00,0.000000,,2013-08-23 21:11:00,
2013-08-23 15:22:00,80.0,61.0,-100.00,SSE,149,9.0,18.0,53,0.00,,,0.00,0.000000,,2013-08-23 21:22:00,
2013-08-23 15:34:00,80.0,61.0,-100.00,SSE,149,9.0,18.0,53,0.00,,,0.00,0.000000,,2013-08-23 21:34:00,
2013-08-23 16:13:00,79.0,58.0,-100.00,SSE,151,8.0,17.0,49,0.00,,,0.00,0.000000,,2013-08-23 22:13:00,
2013-08-23 16:24:00,79.0,58.0,-100.00,SSE,151,8.0,17.0,49,0.00,,,0.00,0.000000,,2013-08-23 22:24:00,
2013-08-23 16:33:00,79.0,58.0,-100.00,SSE,151,8.0,17.0,49,0.00,,,0.00,0.000000,,2013-08-23 22:33:00,
2013-08-23 17:12:00,82.0,58.0,-100.00,SSE,150,9.0,17.0,44,0.00,,,0.00,0.000000,,2013-08-23 23:12:00,
2013-08-23 17:22:00,82.0,58.0,-100.00,SSE,150,9.0,17.0,44,0.00,,,0.00,0.000000,,2013-08-23 23:22:00,
2013-08-23 17:33:00,82.0,58.0,-100.00,SSE,150,9.0,17.0,44,0.00,,,0.00,0.000000,,2013-08-23 23:33:00,
2013-08-23 18:11:00,84.0,55.0,-100.00,SE,137,7.0,17.0,37,0.00,,,0.00,0.000000,,2013-08-24 00:11:00,
2013-08-23 18:22:00,84.0,55.0,-100.00,SE,137,7.0,17.0,37,0.00,,,0.00,0.000000,,2013-08-24 00:22:00,
2013-08-23 18:32:00,84.0,55.0,-100.00,SE,137,7.0,17.0,37,0.00,,,0.00,0.000000,,2013-08-24 00:32:00,
2013-08-23 19:11:00,82.0,56.0,-100.00,SSE,158,3.0,15.0,41,0.00,,,-99.99,0.000000,,2013-08-24 01:11:00,
2013-08-23 19:22:00,82.0,56.0,-100.00,SSE,158,3.0,15.0,41,0.00,,,-99.99,0.000000,,2013-08-24 01:22:00,
2013-08-23 19:32:00,82.0,56.0,-100.00,SSE,158,3.0,15.0,41,0.00,,,-99.99,0.000000,,2013-08-24 01:32:00,
2013-08-23 20:12:00,80.0,56.0,-100.00,SE,131,1.0,5.0,44,0.00,,,0.00,0.000000,,2013-08-24 02:12:00,
2013-08-23 20:22:00,80.0,56.0,-100.00,SE,131,1.0,5.0,44,0.00,,,0.00,0.000000,,2013-08-24 02:22:00,
2013-08-23 20:32:00,80.0,56.0,-100.00,SE,131,1.0,5.0,44,0.00,,,0.00,0.000000,,2013-08-24 02:32:00,
2013-08-23 21:12:00,78.0,58.0,-100.00,NNW,346,3.0,4.0,50,0.00,,,0.00,0.000000,,2013-08-24 03:12:00,
2013-08-23 21:22:00,78.0,58.0,-100.00,NNW,346,3.0,4.0,50,0.00,,,0.00,0.000000,,2013-08-24 03:22:00,
2013-08-23 21:34:00,78.0,58.0,-100.00,NNW,346,3.0,4.0,50,0.00,,,0.00,0.000000,,2013-08-24 03:34:00,
2013-08-23 22:14:00,77.0,57.0,-100.00,NNW,341,3.0,5.0,50,0.00,,,0.00,0.000000,,2013-08-24 04:14:00,
2013-08-23 22:24:00,77.0,57.0,-100.00,NNW,341,3.0,5.0,50,0.00,,,0.00,0.000000,,2013-08-24 04:24:00,
2013-08-23 22:34:00,77.0,57.0,-100.00,NNW,341,3.0,5.0,50,0.00,,,0.00,0.000000,,2013-08-24 04:34:00,
2013-08-23 23:13:00,75.0,58.0,-100.00,West,269,2.0,5.0,55,0.00,,,0.00,0.000000,,2013-08-24 05:13:00,
2013-08-23 23:23:00,75.0,58.0,-100.00,West,269,2.0,5.0,55,0.00,,,0.00,0.000000,,2013-08-24 05:23:00,
2013-08-23 23:33:00,75.0,58.0,-100.00,West,269,2.0,5.0,55,0.00,,,0.00,0.000000,,2013-08-24 05:33:00,